• In Portugal
  • List of Countries
  • For 7 days
  • Water Temperature
  • Satellite Maps
  • Weather Map
  • Weather Widgets
  • user-avatar
    Login

    Hourly Weather Ganja

    Today, 23 October, Tuesday

    Time Temperature Precipitation Wind Pressure Humidity
    00:00 +17°C° 0 mm 2 mps 726 mmHg 63%
    01:00 +17°C° 0 mm 3 mps 726 mmHg 64%
    02:00 +17°C° 0 mm 3 mps 726 mmHg 65%
    03:00 +16°C° 0 mm 3 mps 726 mmHg 66%
    04:00 +16°C° 0 mm 3 mps 726 mmHg 66%
    05:00 +16°C° 0 mm 3 mps 726 mmHg 66%
    06:00 +16°C° 0 mm 3 mps 726 mmHg 66%
    07:00 +17°C° 0 mm 3 mps 726 mmHg 61%
    08:00 +18°C° 0 mm 3 mps 727 mmHg 55%
    09:00 +20°C° 0 mm 3 mps 727 mmHg 50%
    10:00 +21°C° 0 mm 3 mps 726 mmHg 46%
    11:00 +22°C° 0 mm 3 mps 726 mmHg 43%
    12:00 +24°C° 0 mm 3 mps 726 mmHg 39%
    13:00 +24°C° 0 mm 3 mps 726 mmHg 39%
    14:00 +24°C° 0 mm 2 mps 725 mmHg 38%
    15:00 +24°C° 0 mm 2 mps 725 mmHg 37%
    16:00 +23°C° 0 mm 2 mps 725 mmHg 42%
    17:00 +22°C° 0 mm 1 mps 725 mmHg 46%
    18:00 +20°C° 0 mm 1 mps 725 mmHg 50%
    19:00 +20°C° 0 mm 1 mps 725 mmHg 50%
    20:00 +19°C° 0 mm 1 mps 725 mmHg 50%
    21:00 +19°C° 0 mm 1 mps 725 mmHg 49%
    22:00 +18°C° 0 mm 1 mps 725 mmHg 49%
    23:00 +18°C° 0 mm 1 mps 725 mmHg 49%

    Tomorrow, 24 October, Wednesday

    Time Temperature Precipitation Wind Pressure Humidity
    00:00 +18°C° 0 mm 1 mps 725 mmHg 48%
    01:00 +16°C° 0 mm 1 mps 724 mmHg 49%
    02:00 +16°C° 0 mm 1 mps 724 mmHg 49%
    03:00 +16°C° 0 mm 1 mps 724 mmHg 49%
    04:00 +15°C° 0 mm 2 mps 724 mmHg 49%
    05:00 +15°C° 0 mm 2 mps 723 mmHg 50%
    06:00 +15°C° 0 mm 2 mps 723 mmHg 51%
    07:00 +17°C° 0 mm 2 mps 723 mmHg 47%
    08:00 +18°C° 0 mm 2 mps 723 mmHg 43%
    09:00 +20°C° 0 mm 2 mps 723 mmHg 39%
    10:00 +21°C° 0 mm 2 mps 723 mmHg 37%
    11:00 +23°C° 0 mm 2 mps 722 mmHg 35%
    12:00 +24°C° 0 mm 3 mps 721 mmHg 34%
    13:00 +24°C° 0 mm 2 mps 721 mmHg 34%
    14:00 +24°C° 0 mm 2 mps 720 mmHg 34%
    15:00 +24°C° 0 mm 2 mps 720 mmHg 34%
    16:00 +23°C° 0 mm 2 mps 720 mmHg 37%
    17:00 +21°C° 0 mm 2 mps 719 mmHg 40%
    18:00 +20°C° 0 mm 1 mps 719 mmHg 43%
    19:00 +20°C° 0 mm 1 mps 719 mmHg 44%
    20:00 +20°C° 0 mm 1 mps 719 mmHg 44%
    21:00 +19°C° 0 mm 2 mps 719 mmHg 45%
    22:00 +18°C° 0 mm 2 mps 719 mmHg 46%
    23:00 +18°C° 0 mm 2 mps 719 mmHg 47%

    Day after tomorrow, 25 October, Thursday

    Time Temperature Precipitation Wind Pressure Humidity
    00:00 +18°C° 0 mm 2 mps 718 mmHg 47%
    01:00 +18°C° 0 mm 2 mps 718 mmHg 49%
    02:00 +18°C° 0 mm 3 mps 718 mmHg 51%
    03:00 +17°C° 0 mm 3 mps 717 mmHg 52%
    04:00 +17°C° 0 mm 3 mps 717 mmHg 55%
    05:00 +17°C° 0 mm 3 mps 717 mmHg 57%
    06:00 +16°C° 0 mm 3 mps 716 mmHg 59%
    07:00 +18°C° 0 mm 3 mps 716 mmHg 54%
    08:00 +19°C° 0 mm 4 mps 716 mmHg 49%
    09:00 +21°C° 0 mm 4 mps 716 mmHg 43%
    10:00 +22°C° 0 mm 4 mps 716 mmHg 40%
    11:00 +25°C° 0 mm 5 mps 715 mmHg 36%
    12:00 +26°C° 0 mm 5 mps 714 mmHg 32%
    13:00 +26°C° 0 mm 5 mps 714 mmHg 32%
    14:00 +26°C° 0 mm 4 mps 713 mmHg 31%
    15:00 +27°C° 0 mm 4 mps 713 mmHg 31%
    16:00 +25°C° 0 mm 3 mps 713 mmHg 34%
    17:00 +24°C° 0 mm 3 mps 713 mmHg 37%
    18:00 +23°C° 0 mm 2 mps 713 mmHg 41%
    19:00 +21°C° 0.2 mm 2 mps 713 mmHg 44%
    20:00 +20°C° 0.2 mm 3 mps 714 mmHg 47%
    21:00 +20°C° 0.2 mm 3 mps 714 mmHg 50%
    22:00 +19°C° 0 mm 3 mps 714 mmHg 53%
    23:00 +18°C° 0 mm 4 mps 714 mmHg 56%

    26 October, Friday

    Time Temperature Precipitation Wind Pressure Humidity
    00:00 +17°C° 0 mm 4 mps 714 mmHg 60%
    01:00 +15°C° 0 mm 4 mps 714 mmHg 60%
    02:00 +15°C° 0 mm 4 mps 714 mmHg 61%
    03:00 +14°C° 0 mm 4 mps 714 mmHg 61%
    04:00 +14°C° 0 mm 4 mps 715 mmHg 62%
    05:00 +13°C° 0 mm 5 mps 715 mmHg 62%
    06:00 +12°C° 0 mm 5 mps 716 mmHg 63%
    07:00 +12°C° 0.2 mm 5 mps 716 mmHg 62%
    08:00 +13°C° 0.2 mm 5 mps 717 mmHg 62%
    09:00 +13°C° 0.2 mm 6 mps 718 mmHg 61%
    10:00 +11°C° 1.6 mm 6 mps 718 mmHg 65%
    11:00 +10°C° 1.6 mm 5 mps 718 mmHg 69%
    12:00 +10°C° 1.6 mm 5 mps 718 mmHg 73%
    13:00 +10°C° 1.7 mm 5 mps 718 mmHg 73%
    14:00 +11°C° 1.7 mm 4 mps 719 mmHg 72%
    15:00 +11°C° 1.7 mm 4 mps 719 mmHg 72%
    16:00 +12°C° 0.3 mm 4 mps 720 mmHg 70%
    17:00 +12°C° 0.3 mm 4 mps 721 mmHg 68%
    18:00 +12°C° 0.3 mm 4 mps 722 mmHg 66%
    19:00 +11°C° 0 mm 4 mps 723 mmHg 66%
    20:00 +11°C° 0 mm 4 mps 724 mmHg 67%
    21:00 +11°C° 0 mm 3 mps 724 mmHg 67%
    22:00 +10°C° 0 mm 4 mps 725 mmHg 67%
    23:00 +10°C° 0 mm 4 mps 726 mmHg 67%

    27 October, Saturday

    Time Temperature Precipitation Wind Pressure Humidity
    00:00 +8°C° 0 mm 4 mps 726 mmHg 67%
    01:00 +8°C° 0 mm 4 mps 726 mmHg 66%
    02:00 +8°C° 0 mm 4 mps 727 mmHg 65%
    03:00 +8°C° 0 mm 4 mps 727 mmHg 63%
    04:00 +7°C° 0 mm 4 mps 728 mmHg 62%
    05:00 +7°C° 0 mm 4 mps 729 mmHg 61%
    06:00 +7°C° 0 mm 4 mps 730 mmHg 60%
    07:00 +8°C° 0 mm 4 mps 730 mmHg 58%
    08:00 +11°C° 0 mm 4 mps 731 mmHg 55%
    09:00 +12°C° 0 mm 4 mps 731 mmHg 53%
    10:00 +13°C° 0 mm 4 mps 731 mmHg 50%
    11:00 +14°C° 0 mm 4 mps 731 mmHg 48%
    12:00 +15°C° 0 mm 5 mps 731 mmHg 45%
    13:00 +17°C° 0 mm 4 mps 732 mmHg 44%
    14:00 +17°C° 0 mm 4 mps 732 mmHg 42%
    15:00 +17°C° 0 mm 3 mps 732 mmHg 41%
    16:00 +16°C° 0 mm 2 mps 732 mmHg 44%
    17:00 +15°C° 0 mm 2 mps 733 mmHg 47%
    18:00 +14°C° 0 mm 1 mps 734 mmHg 50%
    19:00 +13°C° 0 mm 1 mps 734 mmHg 51%
    20:00 +13°C° 0 mm 1 mps 735 mmHg 52%
    21:00 +12°C° 0 mm 2 mps 735 mmHg 53%
    22:00 +12°C° 0 mm 2 mps 735 mmHg 54%
    23:00 +10°C° 0 mm 2 mps 735 mmHg 55%

    28 October, Sunday

    Time Temperature Precipitation Wind Pressure Humidity
    00:00 +10°C° 0 mm 2 mps 735 mmHg 56%
    01:00 +11°C° 0 mm 1 mps 735 mmHg 57%
    02:00 +10°C° 0 mm 1 mps 736 mmHg 58%
    03:00 +10°C° 0 mm 1 mps 736 mmHg 59%
    04:00 +10°C° 0 mm 1 mps 736 mmHg 59%
    05:00 +10°C° 0 mm 1 mps 736 mmHg 59%
    06:00 +9°C° 0 mm 1 mps 736 mmHg 58%
    07:00 +11°C° 0 mm 1 mps 736 mmHg 56%
    08:00 +12°C° 0 mm 1 mps 736 mmHg 53%
    09:00 +13°C° 0 mm 1 mps 736 mmHg 51%
    10:00 +14°C° 0 mm 1 mps 735 mmHg 50%
    11:00 +15°C° 0 mm 1 mps 735 mmHg 50%
    12:00 +16°C° 0 mm 1 mps 735 mmHg 49%
    13:00 +16°C° 0 mm 1 mps 735 mmHg 49%
    14:00 +18°C° 0 mm 1 mps 734 mmHg 49%
    15:00 +18°C° 0 mm 1 mps 734 mmHg 49%
    16:00 +16°C° 0 mm 1 mps 734 mmHg 53%
    17:00 +15°C° 0 mm 1 mps 734 mmHg 57%
    18:00 +14°C° 0 mm 1 mps 735 mmHg 60%
    19:00 +13°C° 0 mm 1 mps 735 mmHg 61%
    20:00 +13°C° 0 mm 1 mps 735 mmHg 62%
    21:00 +13°C° 0 mm 1 mps 735 mmHg 63%
    22:00 +13°C° 0 mm 1 mps 735 mmHg 64%
    23:00 +12°C° 0 mm 1 mps 734 mmHg 65%
    Show more